Weather History for Topeka Forbes, KS

Change the Weather History Date:

Thursday, January 31, 2013

  Actual Average Record
Temperature  
Mean Temperature 14 °F -  
Max Temperature 21 °F 43 °F 71 °F (1989)
Min Temperature 8 °F 19 °F -14 °F (1979)
Degree Days  
Heating Degree Days 50    
Moisture  
Dew Point 9 °F    
Average Humidity 72    
Maximum Humidity 89    
Minimum Humidity 54    
Precipitation  
Precipitation 0.00 in - - ()
Sea Level Pressure  
Sea Level Pressure 30.23 in    
Wind  
Wind Speed 8 mph (NW)    
Max Wind Speed 24 mph    
Max Gust Speed 32 mph    
Visibility 10 miles    
Events Snow    
Averages and records for this station are not official NWS values.
T = Trace of Precipitation, MM = Missing Value Source: NWS Daily Summary

Daily Weather History Graph

Daily Weather History Graph

Search for Another Location

Airport:

Trip Planner

Search our weather history database for the weather conditions in past years. The results will help you decide how hot, cold, wet, or windy it might be!

Date:

Astronomy

Jan. 31, 2013 Rise Set
Actual Time 7:29 AM CST 5:43 PM CST
Civil Twilight 7:01 AM CST 6:11 PM CST
Nautical Twilight 6:29 AM CST 6:43 PM CST
Astronomical Twilight 5:58 AM CST 7:14 PM CST
Moon 10:43 PM CST (1/31) 9:32 AM CST (1/31)
Length of Visible Light 11h 09m
Length of Day
10h 13m
Waning Gibbous, 79% of the Moon is Illuminated
Jan 31
Waning Gibbous
Feb 3
Last Quarter
Feb 10
New
Feb 17
First Quarter
Feb 25
Full

Hourly Weather History & Observations

Time (CST) Temp. Windchill Dew Point Humidity Pressure Visibility Wind Dir Wind Speed Gust Speed Precip Events Conditions
12:53 AM 14.0 °F 3.9 °F 10.9 °F 88% 29.99 in 10.0 mi South 6.9 mph - N/A   Clear
1:53 AM 17.1 °F - 12.9 °F 84% 30.00 in 10.0 mi Calm Calm - N/A   Partly Cloudy
2:53 AM 19.0 °F - 15.1 °F 85% 30.00 in 10.0 mi Calm Calm - N/A   Overcast
3:53 AM 19.9 °F - 17.1 °F 89% 29.99 in 10.0 mi Calm Calm - N/A   Mostly Cloudy
4:53 AM 21.0 °F 16.2 °F 18.0 °F 88% 29.98 in 10.0 mi SSW 3.5 mph - N/A   Mostly Cloudy
5:53 AM 21.0 °F 14.6 °F 17.1 °F 85% 30.01 in 10.0 mi West 4.6 mph - N/A   Partly Cloudy
6:53 AM 21.0 °F 12.4 °F 16.0 °F 81% 30.06 in 10.0 mi NNW 6.9 mph - N/A   Mostly Cloudy
7:53 AM 21.0 °F 11.4 °F 14.0 °F 74% 30.10 in 10.0 mi North 8.1 mph - N/A   Mostly Cloudy
8:53 AM 21.0 °F 6.2 °F 12.0 °F 68% 30.15 in 10.0 mi NNW 18.4 mph - N/A   Overcast
9:53 AM 21.0 °F 6.6 °F 12.0 °F 68% 30.18 in 10.0 mi North 17.3 mph - N/A   Overcast
10:53 AM 19.9 °F 4.3 °F 10.0 °F 65% 30.24 in 8.0 mi NNW 19.6 mph 24.2 mph 0.00 in Snow Light Snow
11:53 AM 19.9 °F 3.9 °F 10.0 °F 65% 30.29 in 10.0 mi NW 20.7 mph 27.6 mph N/A   Mostly Cloudy
12:53 PM 19.9 °F 2.8 °F 9.0 °F 62% 30.30 in 10.0 mi NNW 24.2 mph 32.2 mph N/A   Mostly Cloudy
2:53 PM 17.1 °F -0.6 °F 3.9 °F 56% 30.33 in 10.0 mi NNW 23.0 mph 29.9 mph N/A   Clear
3:53 PM 17.1 °F 2.0 °F 3.9 °F 56% 30.36 in 10.0 mi NNW 16.1 mph 27.6 mph N/A   Clear
4:53 PM 16.0 °F -1.7 °F 1.9 °F 54% 30.37 in 10.0 mi NNW 21.9 mph 29.9 mph N/A   Clear
5:53 PM 14.0 °F -1.4 °F 1.9 °F 59% 30.40 in 10.0 mi NNW 15.0 mph - N/A   Clear
6:53 PM 12.0 °F -0.4 °F 1.9 °F 64% 30.43 in 10.0 mi NNW 9.2 mph - N/A   Clear
7:53 PM 10.9 °F - 1.0 °F 64% 30.45 in 10.0 mi Calm Calm - N/A   Clear
8:53 PM 8.1 °F -2.0 °F 1.0 °F 73% 30.51 in 10.0 mi WSW 5.8 mph - N/A   Clear
10:53 PM 8.1 °F - 3.0 °F 80% 30.51 in 10.0 mi Calm Calm - N/A   Clear
11:53 PM 8.1 °F - 1.0 °F 73% 30.51 in 10.0 mi Calm Calm - N/A   Clear